[[{"header":{"parameterUnit":"m.s-1","parameterCategory":1,"la1":30.2991,"la2":30.254,"lo1":-89.0895,"lo2":-89.0444,"dy":0.0017,"dx":0.0017,"nx":28,"ny":28,"refTime":"2023-09-27T21:00:00:Z","depth":0,"parameterNumber":2,"parameterNumberName":"U-component_of_WINDS"},"data":[0,0,0,0,0,0,0,0,0,0,0,0,0,0,0,0,0,0,0,0,0,0,0,0,0,0,0,0,0,0,0,0,0,0,0,0,0,0,0,0,0,0,0,0,0,0,0,0,0,0,0,0,0,0,0,0,0,0,-4.474,-4.4739,0,-4.4712,-4.4712,-4.4712,-4.4572,-4.4568,-4.4565,-4.4562,-4.4537,-4.4539,-4.4542,0,0,0,0,0,0,0,0,0,0,0,0,0,-4.4676,-4.4678,-4.474,-4.4739,-4.4739,-4.4712,-4.4712,-4.4711,-4.4572,-4.4568,-4.4564,-4.4561,-4.4536,-4.4539,-4.4542,0,0,0,0,0,0,0,0,0,0,0,0,0,-4.4682,-4.4678,-4.474,-4.4666,-4.4659,-4.4712,-4.4712,-4.4711,-4.4573,-4.4568,-4.4563,-4.4559,-4.4535,-4.4539,-4.4542,-4.4665,0,0,-4.4553,-4.4555,0,0,0,0,0,0,0,0,-4.4682,-4.4684,-4.4677,-4.4671,-4.4664,-4.464,-4.468,-4.4696,-4.4575,-4.4606,-4.4562,-4.4556,-4.4576,-4.4576,-4.4581,-4.4663,-4.4662,-4.4554,-4.4556,-4.4558,-4.4559,0,0,0,0,0,0,0,-4.4681,-4.4685,-4.4729,-4.4678,-4.4669,-4.4636,-4.4631,-4.4682,-4.4619,-4.4603,-4.4593,-4.4591,-4.4571,-4.4578,-4.458,-4.4662,-4.4554,-4.4557,-4.4559,-4.4561,-4.4846,-4.4851,0,0,0,0,0,0,-4.4691,-4.4685,-4.473,-4.4728,-4.4661,-4.4641,-4.4636,-4.4653,-4.4618,-4.4608,-4.4596,-4.4585,-4.4575,-4.4576,-4.4578,-4.4721,-4.4558,-4.4561,-4.4563,-4.4841,-4.4847,-4.4853,0,0,0,0,0,0,-4.469,-4.4696,-4.4731,-4.4704,-4.4706,-4.4648,-4.4668,-4.4655,-4.4662,-4.4613,-4.4601,-4.4614,-4.4571,-4.4573,-4.4645,-4.4718,-4.4563,-4.4566,-4.4834,-4.4843,-4.485,-4.5006,0,0,0,0,0,0,-4.4689,-4.4697,-4.4741,-4.4706,-4.4708,-4.4797,-4.4672,-4.4658,-4.4668,-4.4654,-4.4627,-4.4618,-4.4567,-4.464,-4.4648,-4.472,-4.4569,-4.4827,-4.4838,-4.4847,-4.4994,-4.5019,-4.504,0,0,0,0,0,-4.4687,-4.4786,-4.4744,-4.475,-4.4762,-4.4801,-4.4802,-4.474,-4.4675,-4.472,-4.4689,-4.4619,-4.4709,-4.4648,-4.4657,-4.4731,-4.4822,-4.4835,-4.4847,-4.4984,-4.5014,-4.5039,0,0,0,0,0,0,-4.4832,-4.478,-4.4733,-4.4824,-4.4818,-4.4777,-4.4832,-4.4773,-4.4787,-4.4773,-4.4697,-4.4692,-4.4775,-4.476,-4.4694,-4.4849,-4.4754,-4.4768,-4.4856,-4.4884,-4.4906,-4.4908,-4.4572,0,0,0,0,0,-4.4875,-4.491,-4.4863,-4.4947,-4.4947,-4.4891,-4.4905,-4.4858,-4.485,-4.4847,-4.482,-4.4815,-4.4843,-4.4862,-4.4884,-4.4992,-4.4985,-4.5047,-4.507,-4.5088,-4.5102,-4.516,-4.5188,-4.4893,-4.4893,-4.4892,0,0,-4.4963,-4.4939,-4.4966,-4.4976,-4.4966,-4.5005,-4.4889,-4.4935,-4.4964,-4.4854,-4.4919,-4.4901,-4.489,-4.4981,-4.502,-4.4971,-4.5182,-4.5104,-4.5119,-4.5123,-4.5176,-4.5204,-4.5229,-4.4901,-4.49,-4.4898,0,0,-4.5144,-4.5129,-4.5198,-4.5191,-4.5177,-4.514,-4.5157,-4.5126,-4.5109,-4.5174,-4.5093,-4.5127,-4.5175,-4.5171,-4.5176,-4.536,-4.5297,-4.5369,-4.5488,-4.5545,-4.5569,-4.5589,-4.5656,-4.5681,-4.5383,-4.5383,-4.5383,0,-4.5256,-4.531,-4.5242,-4.5294,-4.5302,-4.5204,-4.5275,-4.5272,-4.5267,-4.5276,-4.5221,-4.528,-4.5266,-4.5356,-4.5401,-4.5408,-4.5427,-4.5372,-4.5571,-4.559,-4.5608,-4.5672,-4.5697,-4.5392,-4.5391,-4.539,-4.5389,0,-4.545,-4.5489,-4.5547,-4.5545,-4.556,-4.5621,-4.5564,-4.5587,-4.554,-4.5509,-4.5578,-4.5558,-4.5576,-4.5594,-4.5548,-4.5678,-4.5649,-4.5584,-4.5487,-4.5647,-4.5705,-4.5729,-4.5405,-4.5402,-4.5399,-4.5397,0,0,-4.572,-4.568,-4.5703,-4.5702,-4.5681,-4.5711,-4.5769,-4.5786,-4.5809,-4.5809,-4.5858,-4.5902,-4.5842,-4.5848,-4.5801,-4.5852,-4.6001,-4.578,-4.5779,-4.5824,-4.6147,-4.6197,-4.6226,-4.5959,-4.5964,-4.5967,-4.6148,0,-4.5894,-4.599,-4.5932,-4.6038,-4.6075,-4.5984,-4.6035,-4.6029,-4.6002,-4.6031,-4.6002,-4.6035,-4.5953,-4.5956,-4.6002,-4.5973,-4.6065,-4.5959,-4.6006,-4.6008,-4.6012,-4.6256,-4.6308,-4.6479,-4.617,-4.6174,-4.6177,0,-4.611,-4.612,-4.623,-4.6204,-4.6218,-4.6265,-4.6277,-4.6305,-4.6297,-4.6274,-4.6282,-4.6224,-4.6282,-4.6186,-4.6266,-4.6195,-4.6211,-4.6201,-4.6206,-4.6208,-4.6103,-4.6267,-4.6532,-4.6559,-4.6212,-4.6209,-4.6206,0,-4.6299,-4.634,-4.6411,-4.6413,-4.6384,-4.642,-4.641,-4.6397,-4.6412,-4.6423,-4.6432,-4.645,-4.6461,-4.6477,-4.6426,-4.6361,-4.6514,-4.6414,-4.6499,-4.6501,-4.6535,-4.6534,-4.6809,-4.6544,-4.6544,-4.6543,-4.6543,0,-4.65,-4.6571,-4.6496,-4.654,-4.6618,-4.6551,-4.6631,-4.6611,-4.6601,-4.6642,-4.6564,-4.6604,-4.6533,-4.6567,-4.6528,-4.6601,-4.6606,-4.6591,-4.658,-4.6599,-4.6601,-4.6608,-4.6596,-4.655,-4.6549,-4.6547,-4.6546,0,-4.6723,-4.6676,-4.6748,-4.6715,-4.6709,-4.6768,-4.6741,-4.6782,-4.675,-4.6803,-4.6811,-4.6763,-4.6798,-4.6749,-4.678,-4.6754,-4.6855,-4.6825,-4.6858,-4.685,-4.6938,-4.6931,-4.7229,-4.7265,-4.6976,-4.6979,-4.6981,0,-4.6855,-4.6908,-4.6882,-4.6903,-4.6897,-4.6932,-4.6947,-4.6885,-4.6904,-4.6901,-4.6943,-4.6972,-4.6991,-4.7053,-4.7022,-4.7046,-4.7017,-4.712,-4.702,-4.7038,-4.7021,-4.7019,-4.7025,-4.7141,-4.7144,-4.7147,-4.7149,0,-4.7096,-4.707,-4.7094,-4.7111,-4.7131,-4.7142,-4.7146,-4.7169,-4.7103,-4.7129,-4.7165,-4.718,-4.7212,-4.7243,-4.7259,-4.725,-4.7191,-4.7181,-4.7202,-4.7222,-4.724,-4.7233,-4.6915,-4.7174,-4.7172,-4.717,-4.7169,-4.7168,-4.7278,-4.7322,-4.7311,-4.7341,-4.7338,-4.7345,-4.7383,-4.7357,-4.7385,-4.7405,-4.7367,-4.7413,-4.7407,-4.7422,-4.7421,-4.7457,-4.7413,-4.7443,-4.7451,-4.746,-4.7474,-4.7233,-4.746,-4.7459,-4.7458,-4.7457,-4.7457,0,-4.7516,-4.7504,-4.7533,-4.7543,-4.7568,-4.7508,-4.7511,-4.7536,-4.7577,-4.7576,-4.7598,-4.764,-4.7671,-4.7643,-4.7668,-4.7703,-4.7676,-4.7712,-4.7709,-4.7709,-4.7511,-4.7491,-4.7733,-4.7733,-4.7733,-4.7733,-4.7733,-4.7733,-4.7642,-4.7714,-4.7687,-4.7758,-4.7746,-4.779,-4.7798,-4.7805,-4.7804,-4.7854,-4.7879,-4.786,-4.7849,-4.7874,-4.79,-4.7891,-4.7905,-4.7951,-4.7933,-4.7749,-4.7722,-4.7696,-4.7677,-4.7954,-4.7954,-4.8127,-4.8128,-4.813]},{"header":{"parameterUnit":"m.s-1","parameterCategory":1,"la1":30.2991,"la2":30.254,"lo1":-89.0895,"lo2":-89.0444,"dy":0.0017,"dx":0.0017,"nx":28,"ny":28,"refTime":"2023-09-27T21:00:00:Z","depth":0,"parameterNumber":3,"parameterNumberName":"V-component_of_WINDS"},"data":[0,0,0,0,0,0,0,0,0,0,0,0,0,0,0,0,0,0,0,0,0,0,0,0,0,0,0,0,0,0,0,0,0,0,0,0,0,0,0,0,0,0,0,0,0,0,0,0,0,0,0,0,0,0,0,0,0,0,-0.5298,-0.5297,0,-0.5219,-0.5218,-0.5217,-0.514,-0.5139,-0.5138,-0.5137,-0.5054,-0.5053,-0.5051,0,0,0,0,0,0,0,0,0,0,0,0,0,-0.538,-0.5379,-0.5298,-0.5297,-0.5296,-0.5219,-0.5218,-0.5216,-0.514,-0.5139,-0.5138,-0.5136,-0.5054,-0.5053,-0.5051,0,0,0,0,0,0,0,0,0,0,0,0,0,-0.5327,-0.5379,-0.5298,-0.5249,-0.5243,-0.5219,-0.5218,-0.5216,-0.514,-0.5139,-0.5137,-0.5136,-0.5055,-0.5053,-0.5051,-0.5069,0,0,-0.5045,-0.5044,0,0,0,0,0,0,0,0,-0.533,-0.5324,-0.5257,-0.5252,-0.5246,-0.5188,-0.5216,-0.5167,-0.5141,-0.5179,-0.5137,-0.5135,-0.5099,-0.5094,-0.5082,-0.5065,-0.5061,-0.5045,-0.5044,-0.5043,-0.5042,0,0,0,0,0,0,0,-0.5334,-0.5327,-0.5266,-0.5256,-0.5249,-0.5229,-0.522,-0.5206,-0.5149,-0.5176,-0.517,-0.5162,-0.5096,-0.5084,-0.5079,-0.506,-0.5045,-0.5043,-0.5042,-0.5041,-0.5052,-0.5053,0,0,0,0,0,0,-0.5346,-0.5331,-0.5269,-0.5264,-0.5285,-0.5229,-0.5219,-0.5208,-0.5149,-0.5138,-0.5163,-0.5159,-0.5088,-0.5082,-0.5076,-0.5093,-0.5043,-0.5041,-0.504,-0.505,-0.5052,-0.5053,0,0,0,0,0,0,-0.5348,-0.5341,-0.5272,-0.5296,-0.5285,-0.5229,-0.5218,-0.5207,-0.5195,-0.5139,-0.5128,-0.5162,-0.5087,-0.5079,-0.5071,-0.5089,-0.504,-0.5038,-0.5048,-0.5051,-0.5053,-0.5126,0,0,0,0,0,0,-0.535,-0.5342,-0.5349,-0.5297,-0.5285,-0.527,-0.5219,-0.5207,-0.5192,-0.5185,-0.5135,-0.5125,-0.5085,-0.5074,-0.5069,-0.5085,-0.5037,-0.5047,-0.5049,-0.5052,-0.5122,-0.5131,-0.5138,0,0,0,0,0,-0.5354,-0.5373,-0.535,-0.5343,-0.5292,-0.5271,-0.5264,-0.5218,-0.5194,-0.52,-0.5163,-0.5126,-0.5087,-0.5074,-0.5068,-0.5084,-0.5045,-0.5049,-0.5052,-0.5118,-0.5129,-0.5138,0,0,0,0,0,0,-0.5429,-0.5365,-0.5339,-0.5342,-0.5312,-0.5258,-0.5264,-0.5231,-0.5207,-0.5202,-0.5145,-0.5134,-0.5132,-0.5106,-0.5093,-0.5097,-0.5061,-0.5063,-0.5114,-0.5124,-0.5131,-0.5138,-0.5035,0,0,0,0,0,-0.5446,-0.5434,-0.5379,-0.5387,-0.5373,-0.5322,-0.531,-0.5277,-0.5244,-0.5231,-0.5194,-0.5163,-0.5143,-0.5132,-0.511,-0.5117,-0.5105,-0.5125,-0.5133,-0.514,-0.5143,-0.5143,-0.5151,-0.5064,-0.5064,-0.5064,0,0,-0.5481,-0.5444,-0.5441,-0.5401,-0.5374,-0.5363,-0.5312,-0.5302,-0.5292,-0.5229,-0.522,-0.5192,-0.5152,-0.5152,-0.515,-0.513,-0.5163,-0.5144,-0.515,-0.5149,-0.5147,-0.5156,-0.5163,-0.5066,-0.5066,-0.5065,0,0,-0.5539,-0.5511,-0.5514,-0.5488,-0.5448,-0.5413,-0.5414,-0.5364,-0.5343,-0.5332,-0.5284,-0.5271,-0.5239,-0.5213,-0.5196,-0.5242,-0.5207,-0.5236,-0.5279,-0.528,-0.5287,-0.5293,-0.531,-0.5316,-0.5239,-0.5239,-0.5239,0,-0.5588,-0.557,-0.552,-0.5513,-0.5496,-0.5438,-0.5441,-0.5417,-0.5373,-0.5362,-0.5341,-0.5298,-0.5268,-0.526,-0.5271,-0.5259,-0.5257,-0.5243,-0.529,-0.5296,-0.53,-0.5316,-0.5322,-0.5243,-0.5243,-0.5242,-0.5242,0,-0.5631,-0.5619,-0.5626,-0.5585,-0.5569,-0.5567,-0.5515,-0.5505,-0.5473,-0.544,-0.5429,-0.539,-0.536,-0.5355,-0.5323,-0.5342,-0.5331,-0.5301,-0.5264,-0.5314,-0.5327,-0.5332,-0.5249,-0.5247,-0.5246,-0.5245,0,0,-0.5737,-0.5667,-0.567,-0.565,-0.5601,-0.559,-0.5584,-0.5555,-0.5547,-0.5517,-0.551,-0.5483,-0.5455,-0.5435,-0.5399,-0.5401,-0.544,-0.537,-0.5368,-0.5385,-0.5457,-0.5481,-0.5489,-0.5415,-0.5416,-0.5417,-0.5461,0,-0.5787,-0.5775,-0.5729,-0.573,-0.5718,-0.5661,-0.5656,-0.5625,-0.5593,-0.5577,-0.5541,-0.5523,-0.5487,-0.5474,-0.5473,-0.5435,-0.5454,-0.5431,-0.5408,-0.5408,-0.5421,-0.5496,-0.5521,-0.5565,-0.5466,-0.5466,-0.5467,0,-0.5845,-0.582,-0.582,-0.577,-0.5763,-0.5759,-0.5728,-0.5713,-0.5676,-0.5652,-0.563,-0.559,-0.5579,-0.5544,-0.5528,-0.5514,-0.5502,-0.5481,-0.5482,-0.5479,-0.5442,-0.5496,-0.5578,-0.5585,-0.5475,-0.5474,-0.5474,0,-0.5923,-0.5888,-0.5883,-0.5868,-0.5809,-0.5808,-0.5783,-0.5744,-0.5729,-0.5701,-0.569,-0.5661,-0.5646,-0.5624,-0.5577,-0.5555,-0.5566,-0.5527,-0.5546,-0.5547,-0.5552,-0.5553,-0.5634,-0.5543,-0.5543,-0.5542,-0.5542,0,-0.5985,-0.5987,-0.5917,-0.5915,-0.5915,-0.5861,-0.5863,-0.5832,-0.5798,-0.5787,-0.5736,-0.5727,-0.5665,-0.5648,-0.5611,-0.5603,-0.5596,-0.5577,-0.5567,-0.5582,-0.5585,-0.5574,-0.557,-0.5544,-0.5544,-0.5543,-0.5543,0,-0.6073,-0.6026,-0.6017,-0.5962,-0.5948,-0.5951,-0.5903,-0.5897,-0.5862,-0.5849,-0.5843,-0.5787,-0.5765,-0.5715,-0.5679,-0.5654,-0.5656,-0.5638,-0.5669,-0.5663,-0.5685,-0.5684,-0.5763,-0.5771,-0.5674,-0.5675,-0.5676,0,-0.6116,-0.6117,-0.6061,-0.6051,-0.6028,-0.6012,-0.5996,-0.5942,-0.5928,-0.5884,-0.5884,-0.5857,-0.5834,-0.58,-0.5756,-0.5728,-0.5709,-0.5738,-0.5704,-0.5719,-0.571,-0.5711,-0.571,-0.5747,-0.5748,-0.5749,-0.575,0,-0.6198,-0.6175,-0.6154,-0.6126,-0.6108,-0.6083,-0.6054,-0.6048,-0.5987,-0.5973,-0.595,-0.5932,-0.5895,-0.5869,-0.5834,-0.5807,-0.5768,-0.5761,-0.5764,-0.578,-0.5798,-0.5789,-0.5691,-0.576,-0.5759,-0.5758,-0.5757,-0.5757,-0.6265,-0.6263,-0.6223,-0.6202,-0.6175,-0.6149,-0.6141,-0.6104,-0.6084,-0.6051,-0.6019,-0.5999,-0.5959,-0.5908,-0.5883,-0.5866,-0.5846,-0.5851,-0.5852,-0.5854,-0.5861,-0.58,-0.5859,-0.5859,-0.5858,-0.5858,-0.5858,0,-0.6345,-0.6316,-0.6297,-0.6259,-0.6242,-0.6207,-0.6173,-0.6161,-0.6144,-0.611,-0.6088,-0.606,-0.6034,-0.5987,-0.5957,-0.5952,-0.5934,-0.5946,-0.5946,-0.5941,-0.588,-0.588,-0.5962,-0.5962,-0.5962,-0.5962,-0.5962,-0.5962,-0.6384,-0.6378,-0.635,-0.6329,-0.6299,-0.628,-0.6264,-0.6239,-0.6212,-0.6184,-0.6163,-0.6132,-0.6093,-0.6059,-0.6033,-0.602,-0.6011,-0.603,-0.6011,-0.5955,-0.5945,-0.5936,-0.5936,-0.6028,-0.6028,-0.6073,-0.6074,-0.6074]}]]